Location: ?????
(31.8092°N, 35.2590°E)
Time: 20:00:44
(UTC+00:00)

Aureole 3 Rocket - Pass Details

Date: 20 June 2021
Orbit: 399 x 1739 km, 82.5° (Epoch: 01 August)

Event Time Altitude Azimuth Distance (km) Brightness Sun altitude
Rises 23:42:59 0° 347° (NNW) 2,862 7.1 -27.5°
Reaches altitude 10° 23:44:55 10° 343° (NNW) 2,093 6.2 -27.3°
Enters shadow 23:48:49 54° 297° (WNW) 971 3.9 -26.8°
